Cameron, TX

12:13 PM CDT on October 22, 2019 (GMT -0500)
Cameron

Weather History for KT35 - September, 2019

Change the Weather History Date:

Sunday, September 22, 2019

  Actual Average (WUND) Record (WUND)
Temperature  
Mean Temperature 84 °F -  
Max Temperature 97 °F - - (-1)
Min Temperature 73 °F - - (-1)
Cooling Degree Days 20    
Growing Degree Days 34 (Base 50)    
Moisture  
Dew Point 71 °F    
Average Humidity 69    
Maximum Humidity 97    
Minimum Humidity 36    
Precipitation  
Precipitation 0.00 in - - ()
Sea Level Pressure  
Sea Level Pressure 30.00 in    
Wind  
Wind Speed 6 mph (South)    
Max Wind Speed 13 mph    
Max Gust Speed 17 mph    
Visibility 10 miles    
Events      
Averages and records for this station are not official NWS values.
T = Trace of Precipitation, MM = Missing Value Source: NWS Daily Summary

Daily Weather History Graph

Daily Weather History Graph

Search for Another Location

Airport or City:

Astronomy

Sep. 22, 2019 Rise Set
Actual Time 7:16 AM CDT 7:24 PM CDT
Civil Twilight 6:51 AM CDT 7:48 PM CDT
Nautical Twilight 6:23 AM CDT 8:16 PM CDT
Astronomical Twilight 5:55 AM CDT 8:45 PM CDT
Moon 12:30 AM CDT 2:56 PM CDT
Length of Visible Light 12h 56m
Length of Day
12h 08m
Last Quarter, 44% of the Moon is Illuminated
Sep 22
Last Quarter
Sep 28
New
Oct 5
First Quarter
Oct 13
Full
Oct 21
Last Quarter

Hourly Weather History & Observations

Time (CDT) Temp. Heat Index Dew Point Humidity Pressure Visibility Wind Dir Wind Speed Gust Speed Precip Events Conditions
12:15 AM 78.8 °F - 69.8 °F 74% 30.03 in 10.0 mi SSE 6.9 mph - N/A   Clear
12:35 AM 78.3 °F - 70.0 °F 76% 30.03 in 10.0 mi SSE 6.9 mph - N/A   Clear
12:55 AM 77.9 °F - 70.5 °F 78% 30.02 in 10.0 mi SSE 6.9 mph - N/A   Clear
1:15 AM 77.4 °F - 71.1 °F 81% 30.02 in 10.0 mi South 5.8 mph - N/A   Clear
1:35 AM 77.0 °F - 71.6 °F 83% 30.02 in 10.0 mi SSE 5.8 mph - N/A   Clear
1:55 AM 76.8 °F - 71.8 °F 84% 30.03 in 10.0 mi South 4.6 mph - N/A   Scattered Clouds
2:15 AM 76.5 °F - 72.3 °F 87% 30.03 in 10.0 mi South 5.8 mph - N/A   Scattered Clouds
2:35 AM 76.3 °F - 72.5 °F 88% 30.03 in 10.0 mi South 4.6 mph - N/A   Clear
2:55 AM 76.1 °F - 72.5 °F 89% 30.03 in 10.0 mi SSE 5.8 mph - N/A   Clear
3:15 AM 75.7 °F - 72.7 °F 90% 30.02 in 10.0 mi SSE 5.8 mph - N/A   Clear
3:35 AM 75.4 °F - 72.7 °F 91% 30.02 in 10.0 mi SSE 3.5 mph - N/A   Clear
3:55 AM 75.2 °F - 72.5 °F 91% 30.02 in 10.0 mi Calm Calm - N/A   Clear
4:15 AM 74.8 °F - 72.5 °F 92% 30.01 in 10.0 mi SSE 3.5 mph - N/A   Clear
4:35 AM 74.5 °F - 72.5 °F 94% 30.02 in 10.0 mi Calm Calm - N/A   Clear
4:55 AM 74.3 °F - 72.5 °F 94% 30.02 in 10.0 mi Calm Calm - N/A   Scattered Clouds
5:15 AM 74.3 °F - 72.5 °F 94% 30.02 in 10.0 mi Calm Calm - N/A   Mostly Cloudy
5:35 AM 73.6 °F - 72.1 °F 95% 30.03 in 10.0 mi Calm Calm - N/A   Overcast
5:55 AM 73.6 °F - 72.5 °F 96% 30.03 in 10.0 mi Calm Calm - N/A   Overcast
6:15 AM 73.6 °F - 72.5 °F 96% 30.03 in 10.0 mi Calm Calm - N/A   Overcast
6:35 AM 73.6 °F - 72.5 °F 96% 30.04 in 7.0 mi Calm Calm - N/A   Overcast
6:55 AM 73.6 °F - 72.5 °F 96% 30.04 in 7.0 mi Calm Calm - N/A   Overcast
7:15 AM 73.8 °F - 72.5 °F 96% 30.05 in 7.0 mi Calm Calm - N/A   Overcast
7:35 AM 73.9 °F - 72.7 °F 96% 30.05 in 5.0 mi Calm Calm - N/A   Overcast
7:55 AM 73.9 °F - 72.9 °F 96% 30.05 in 1.5 mi Calm Calm - N/A   Overcast
8:15 AM 74.5 °F - 73.6 °F 97% 30.05 in 3.0 mi SSE 3.5 mph - N/A   Overcast
8:35 AM 75.2 °F - 73.8 °F 95% 30.06 in 7.0 mi South 4.6 mph - N/A   Overcast
8:55 AM 75.6 °F - 73.9 °F 95% 30.06 in 7.0 mi SSE 5.8 mph - N/A   Overcast
9:15 AM 77.2 °F - 74.3 °F 91% 30.06 in 10.0 mi SSE 6.9 mph - N/A   Overcast
9:35 AM 79.2 °F - 74.5 °F 86% 30.06 in 10.0 mi South 8.1 mph - N/A   Overcast
9:55 AM 81.9 °F 88.5 °F 75.0 °F 80% 30.06 in 10.0 mi South 10.4 mph - N/A   Overcast
10:15 AM 82.2 °F 88.5 °F 74.5 °F 77% 30.06 in 10.0 mi SSW 9.2 mph - N/A   Overcast
10:35 AM 84.4 °F 91.7 °F 74.1 °F 71% 30.05 in 10.0 mi South 10.4 mph - N/A   Scattered Clouds
10:55 AM 84.7 °F 91.4 °F 73.2 °F 68% 30.05 in 10.0 mi South 11.5 mph - N/A   Scattered Clouds
11:15 AM 87.1 °F 94.1 °F 72.7 °F 62% 30.05 in 10.0 mi South 11.5 mph - N/A   Scattered Clouds
11:35 AM 87.6 °F 94.3 °F 72.0 °F 60% 30.04 in 10.0 mi SSW 11.5 mph - N/A   Overcast
11:55 AM 88.9 °F 94.7 °F 71.1 °F 55% 30.04 in 10.0 mi South 11.5 mph - N/A   Mostly Cloudy
12:15 PM 90.5 °F 96.0 °F 70.0 °F 51% 30.03 in 10.0 mi SSW 10.4 mph - N/A   Scattered Clouds
12:35 PM 91.4 °F 96.8 °F 70.0 °F 49% 30.02 in 10.0 mi South 9.2 mph - N/A   Mostly Cloudy
12:55 PM 93.2 °F 98.8 °F 69.6 °F 46% 30.01 in 10.0 mi South 12.7 mph - N/A   Mostly Cloudy
1:15 PM 91.2 °F 96.5 °F 69.6 °F 49% 30.01 in 10.0 mi WSW 9.2 mph - N/A   Mostly Cloudy
1:35 PM 92.7 °F 97.2 °F 68.7 °F 45% 30.00 in 10.0 mi South 6.9 mph - N/A   Mostly Cloudy
1:55 PM 93.7 °F 97.7 °F 67.6 °F 42% 29.99 in 10.0 mi SSW 9.2 mph - N/A   Scattered Clouds
2:15 PM 93.7 °F 98.2 °F 67.8 °F 43% 29.98 in 10.0 mi South 4.6 mph 9.2 mph N/A   Scattered Clouds
2:35 PM 94.3 °F 98.2 °F 66.9 °F 41% 29.97 in 10.0 mi SSW 8.1 mph 17.3 mph N/A   Scattered Clouds
2:55 PM 95.5 °F 100.0 °F 67.8 °F 40% 29.96 in 10.0 mi South 10.4 mph - N/A   Clear
3:15 PM 95.2 °F 99.3 °F 67.3 °F 40% 29.96 in 10.0 mi South 11.5 mph 17.3 mph N/A   Scattered Clouds
3:35 PM 95.9 °F 100.1 °F 67.5 °F 39% 29.95 in 10.0 mi SW 3.5 mph - N/A   Scattered Clouds
3:55 PM 95.5 °F 98.9 °F 66.4 °F 38% 29.95 in 10.0 mi South 10.4 mph 16.1 mph N/A   Mostly Cloudy
4:15 PM 95.4 °F 98.6 °F 66.0 °F 38% 29.94 in 10.0 mi South 5.8 mph - N/A   Scattered Clouds
4:35 PM 95.9 °F 99.0 °F 65.8 °F 37% 29.93 in 10.0 mi South 6.9 mph - N/A   Scattered Clouds
4:55 PM 96.1 °F 98.8 °F 65.5 °F 36% 29.93 in 10.0 mi SSW 4.6 mph - N/A   Scattered Clouds
5:15 PM 95.7 °F 99.2 °F 66.4 °F 38% 29.93 in 10.0 mi SSE 6.9 mph - N/A   Mostly Cloudy
5:35 PM 95.0 °F 99.0 °F 66.9 °F 40% 29.93 in 10.0 mi SSE 8.1 mph - N/A   Mostly Cloudy
5:55 PM 93.7 °F 97.7 °F 67.5 °F 42% 29.93 in 10.0 mi SSE 6.9 mph - N/A   Clear
6:15 PM 93.7 °F 97.7 °F 67.3 °F 42% 29.93 in 10.0 mi SSE 5.8 mph - N/A   Clear
6:35 PM 93.0 °F 96.9 °F 67.5 °F 43% 29.93 in 10.0 mi SSE 5.8 mph - N/A   Clear
6:55 PM 91.8 °F 96.0 °F 68.0 °F 46% 29.93 in 10.0 mi SSE 3.5 mph - N/A   Clear
7:15 PM 90.1 °F 94.0 °F 68.0 °F 48% 29.94 in 10.0 mi SSE 5.8 mph - N/A   Clear
7:35 PM 88.7 °F 92.2 °F 68.0 °F 50% 29.94 in 10.0 mi SE 5.8 mph - N/A   Clear
7:55 PM 88.3 °F 92.0 °F 68.4 °F 51% 29.95 in 10.0 mi SE 4.6 mph - N/A   Clear
8:15 PM 86.9 °F 90.6 °F 68.5 °F 54% 29.95 in 10.0 mi SSE 5.8 mph - N/A   Clear
8:35 PM 85.8 °F 89.7 °F 68.9 °F 57% 29.96 in 10.0 mi SSE 4.6 mph - N/A   Clear
9:15 PM 84.6 °F 89.4 °F 70.9 °F 63% 29.98 in 10.0 mi SE 6.9 mph - N/A   Clear
9:35 PM 83.8 °F 89.5 °F 72.3 °F 68% 29.99 in 10.0 mi SE 5.8 mph - N/A   Clear
9:55 PM 82.9 °F 88.8 °F 73.0 °F 72% 29.99 in 10.0 mi SE 5.8 mph - N/A   Clear
10:15 PM 82.6 °F 88.6 °F 73.4 °F 74% 30.00 in 10.0 mi SE 4.6 mph - N/A   Clear
10:35 PM 82.0 °F 87.7 °F 73.4 °F 75% 30.01 in 10.0 mi SE 8.1 mph - N/A   Clear
10:55 PM 81.7 °F 87.1 °F 73.4 °F 76% 30.01 in 10.0 mi SSE 6.9 mph - N/A   Clear
11:15 PM 81.5 °F 86.5 °F 72.9 °F 75% 30.02 in 10.0 mi SSE 6.9 mph - N/A   Clear
11:35 PM 81.9 °F 87.0 °F 73.0 °F 74% 30.01 in 10.0 mi SSE 10.4 mph 17.3 mph N/A   Clear
11:55 PM 81.5 °F 86.7 °F 73.4 °F 76% 30.02 in 10.0 mi South 9.2 mph 16.1 mph N/A   Clear